EZY32FP EGPF-EGBB

Flight info

Callsign EZY32FP
Flight time 0h 43m
Altitude 27000
Route NORBO T256 RIPNO DCT AKOMU DCT VAMEB UL612 CROFT
Aircraft A320/M-SDE2E3FGHIJ1RWXYZ/LB1

Departure

Time 2026-05-07 18:59
Airport Glasgow Airport (EGPF)

Arrival

Time 2026-05-07 19:43
Airport Birmingham Airport (EGBB)
Time Latitude Longitude Altitude Speed Heading
2026-05-07 18:27 55.86623 -4.43117 29 ft 0 kts 74°
2026-05-07 18:50 55.86617 -4.43150 29 ft 4 kts 63°
2026-05-07 18:50 55.86602 -4.43186 29 ft 4 kts 28°
2026-05-07 18:50 55.86583 -4.43193 29 ft 1 kts 344°
2026-05-07 18:53 55.86599 -4.43201 29 ft 8 kts 344°
2026-05-07 18:53 55.86658 -4.43231 29 ft 9 kts 344°
2026-05-07 18:54 55.86714 -4.43260 29 ft 8 kts 343°
2026-05-07 18:54 55.86764 -4.43285 29 ft 8 kts 347°
2026-05-07 18:54 55.86816 -4.43226 29 ft 10 kts 71°
2026-05-07 18:54 55.86834 -4.43118 29 ft 9 kts 73°
2026-05-07 18:55 55.86854 -4.43002 29 ft 13 kts 65°
2026-05-07 18:55 55.86940 -4.42901 29 ft 15 kts 26°
2026-05-07 18:55 55.87035 -4.42828 29 ft 14 kts 20°
2026-05-07 18:55 55.87126 -4.42768 29 ft 13 kts 20°
2026-05-07 18:56 55.87209 -4.42713 29 ft 12 kts 22°
2026-05-07 18:56 55.87286 -4.42660 29 ft 12 kts 20°
2026-05-07 18:56 55.87360 -4.42611 29 ft 11 kts 20°
2026-05-07 18:56 55.87417 -4.42539 29 ft 10 kts 47°
2026-05-07 18:57 55.87464 -4.42452 29 ft 11 kts 46°
2026-05-07 18:57 55.87528 -4.42333 29 ft 15 kts 46°
2026-05-07 18:57 55.87599 -4.42198 29 ft 15 kts 46°
2026-05-07 18:57 55.87668 -4.42070 29 ft 14 kts 46°
2026-05-07 18:58 55.87731 -4.41952 29 ft 13 kts 46°
2026-05-07 18:58 55.87816 -4.41855 29 ft 15 kts 12°
2026-05-07 18:58 55.87906 -4.41884 29 ft 12 kts 325°
2026-05-07 18:58 55.87926 -4.41962 29 ft 6 kts 228°
2026-05-07 18:59 55.87849 -4.42106 29 ft 41 kts 226°
2026-05-07 18:59 55.87488 -4.42783 29 ft 106 kts 226°
2026-05-07 18:59 55.86854 -4.43965 58 ft 152 kts 225°
2026-05-07 18:59 55.86136 -4.45322 753 ft 149 kts 222°
2026-05-07 19:00 55.85399 -4.46659 1378 ft 157 kts 223°
2026-05-07 19:00 55.84569 -4.48125 1745 ft 180 kts 221°
2026-05-07 19:00 55.83616 -4.49798 2147 ft 205 kts 221°
2026-05-07 19:00 55.82543 -4.51686 2635 ft 228 kts 224°
2026-05-07 19:01 55.81395 -4.53718 3447 ft 236 kts 224°
2026-05-07 19:01 55.80217 -4.55796 4380 ft 241 kts 222°
2026-05-07 19:01 55.78779 -4.57351 5230 ft 247 kts 199°
2026-05-07 19:01 55.77054 -4.57634 6151 ft 256 kts 174°
2026-05-07 19:02 55.75369 -4.56471 6998 ft 266 kts 154°
2026-05-07 19:02 55.73761 -4.54813 7863 ft 270 kts 154°
2026-05-07 19:02 55.72136 -4.53100 8707 ft 274 kts 153°
2026-05-07 19:02 55.70485 -4.51356 9549 ft 279 kts 154°
2026-05-07 19:03 55.68824 -4.49607 10247 ft 287 kts 154°
2026-05-07 19:03 55.67006 -4.47716 10521 ft 310 kts 154°
2026-05-07 19:03 55.65142 -4.45782 11119 ft 319 kts 154°
2026-05-07 19:03 55.63215 -4.43777 11862 ft 323 kts 153°
2026-05-07 19:04 55.61268 -4.41751 12641 ft 327 kts 153°
2026-05-07 19:04 55.59296 -4.39706 13402 ft 330 kts 154°
2026-05-07 19:04 55.57303 -4.37645 14091 ft 334 kts 154°
2026-05-07 19:04 55.55291 -4.35568 14749 ft 337 kts 154°
2026-05-07 19:05 55.53260 -4.33475 15411 ft 339 kts 154°
2026-05-07 19:05 55.51209 -4.31375 16077 ft 342 kts 154°
2026-05-07 19:05 55.49141 -4.29259 16739 ft 345 kts 154°
2026-05-07 19:05 55.47057 -4.27123 17404 ft 348 kts 154°
2026-05-07 19:06 55.44956 -4.24972 18038 ft 351 kts 154°
2026-05-07 19:06 55.40697 -4.20610 19153 ft 357 kts 154°
2026-05-07 19:06 55.38540 -4.18406 19696 ft 360 kts 154°
2026-05-07 19:07 55.36361 -4.16181 20221 ft 364 kts 154°
2026-05-07 19:07 55.34160 -4.13938 20756 ft 367 kts 154°
2026-05-07 19:07 55.31944 -4.11686 21276 ft 370 kts 154°
2026-05-07 19:07 55.29703 -4.09413 21781 ft 373 kts 154°
2026-05-07 19:08 55.27449 -4.07126 22282 ft 376 kts 154°
2026-05-07 19:08 55.25168 -4.04849 22787 ft 378 kts 155°
2026-05-07 19:08 55.22862 -4.02598 23273 ft 381 kts 155°
2026-05-07 19:08 55.20532 -4.00356 23690 ft 384 kts 155°
2026-05-07 19:09 55.18181 -3.98109 24078 ft 386 kts 155°
2026-05-07 19:09 55.15814 -3.95848 24481 ft 389 kts 155°
2026-05-07 19:09 55.13439 -3.93565 24913 ft 391 kts 155°
2026-05-07 19:09 55.11055 -3.91263 25337 ft 392 kts 155°
2026-05-07 19:10 55.08663 -3.88951 25763 ft 394 kts 155°
2026-05-07 19:10 55.06265 -3.86634 26187 ft 395 kts 155°
2026-05-07 19:10 55.03856 -3.84310 26606 ft 396 kts 155°
2026-05-07 19:10 55.01468 -3.82014 26892 ft 398 kts 154°
2026-05-07 19:11 54.99056 -3.79698 26973 ft 391 kts 154°
2026-05-07 19:11 54.96726 -3.77461 26982 ft 377 kts 154°
2026-05-07 19:11 54.94439 -3.75275 26975 ft 373 kts 154°
2026-05-07 19:11 54.92162 -3.73105 26981 ft 374 kts 154°
2026-05-07 19:12 54.89880 -3.70932 26981 ft 374 kts 154°
2026-05-07 19:12 54.87597 -3.68757 26988 ft 374 kts 154°
2026-05-07 19:12 54.85313 -3.66580 26988 ft 374 kts 154°
2026-05-07 19:12 54.83030 -3.64408 26984 ft 374 kts 154°
2026-05-07 19:13 54.80748 -3.62240 26988 ft 374 kts 154°
2026-05-07 19:13 54.78466 -3.60072 26996 ft 374 kts 154°
2026-05-07 19:13 54.76181 -3.57911 26996 ft 374 kts 154°
2026-05-07 19:13 54.73897 -3.55758 26991 ft 374 kts 155°
2026-05-07 19:14 54.71612 -3.53605 26989 ft 374 kts 155°
2026-05-07 19:14 54.69327 -3.51453 26975 ft 374 kts 154°
2026-05-07 19:14 54.67042 -3.49299 26973 ft 374 kts 154°
2026-05-07 19:14 54.64756 -3.47148 26971 ft 374 kts 154°
2026-05-07 19:15 54.62468 -3.44999 26968 ft 375 kts 154°
2026-05-07 19:15 54.60178 -3.42852 26973 ft 375 kts 154°
2026-05-07 19:15 54.57887 -3.40706 26976 ft 375 kts 154°
2026-05-07 19:15 54.55598 -3.38562 26977 ft 375 kts 154°
2026-05-07 19:16 54.53302 -3.36412 26977 ft 375 kts 154°
2026-05-07 19:16 54.51008 -3.34272 26977 ft 375 kts 154°
2026-05-07 19:16 54.48714 -3.32135 26979 ft 375 kts 155°
2026-05-07 19:16 54.46417 -3.29996 26983 ft 375 kts 154°
2026-05-07 19:17 54.44119 -3.27858 26971 ft 376 kts 154°
2026-05-07 19:17 54.41826 -3.25730 26972 ft 376 kts 154°
2026-05-07 19:17 54.39522 -3.23590 26976 ft 377 kts 154°
2026-05-07 19:17 54.37219 -3.21455 26975 ft 377 kts 154°
2026-05-07 19:18 54.34913 -3.19321 26964 ft 377 kts 154°
2026-05-07 19:18 54.32604 -3.17188 26972 ft 377 kts 154°
2026-05-07 19:18 54.30291 -3.15059 26973 ft 377 kts 154°
2026-05-07 19:18 54.27979 -3.12936 26979 ft 377 kts 154°
2026-05-07 19:19 54.25668 -3.10819 26982 ft 377 kts 154°
2026-05-07 19:19 54.23358 -3.08697 26987 ft 377 kts 154°
2026-05-07 19:19 54.21080 -3.06601 26995 ft 377 kts 154°
2026-05-07 19:19 54.18742 -3.04451 26977 ft 377 kts 154°
2026-05-07 19:20 54.16430 -3.02326 26979 ft 377 kts 154°
2026-05-07 19:20 54.14147 -3.00235 26980 ft 378 kts 154°
2026-05-07 19:20 54.11829 -2.98121 26993 ft 378 kts 154°
2026-05-07 19:20 54.09507 -2.96004 26992 ft 378 kts 154°
2026-05-07 19:21 54.07187 -2.93887 26993 ft 378 kts 154°
2026-05-07 19:21 54.04865 -2.91774 26990 ft 379 kts 154°
2026-05-07 19:21 54.02541 -2.89665 26992 ft 379 kts 154°
2026-05-07 19:21 54.00218 -2.87559 26990 ft 379 kts 154°
2026-05-07 19:22 53.97893 -2.85454 26985 ft 379 kts 154°
2026-05-07 19:22 53.95567 -2.83353 26987 ft 379 kts 154°
2026-05-07 19:22 53.93240 -2.81250 26985 ft 379 kts 155°
2026-05-07 19:22 53.90909 -2.79147 26985 ft 380 kts 154°
2026-05-07 19:23 53.88576 -2.77042 26988 ft 380 kts 154°
2026-05-07 19:23 53.86236 -2.74936 26989 ft 381 kts 155°
2026-05-07 19:23 53.83896 -2.72833 26992 ft 381 kts 155°
2026-05-07 19:23 53.81553 -2.70732 26995 ft 381 kts 155°
2026-05-07 19:24 53.79208 -2.68629 27004 ft 382 kts 155°
2026-05-07 19:24 53.76865 -2.66531 26936 ft 380 kts 155°
2026-05-07 19:24 53.74554 -2.64463 26674 ft 371 kts 155°
2026-05-07 19:24 53.72292 -2.62435 26415 ft 366 kts 155°
2026-05-07 19:25 53.70054 -2.60429 26148 ft 364 kts 155°
2026-05-07 19:25 53.67817 -2.58433 25883 ft 363 kts 155°
2026-05-07 19:25 53.65591 -2.56453 25638 ft 361 kts 155°
2026-05-07 19:25 53.63372 -2.54478 25393 ft 360 kts 155°
2026-05-07 19:26 53.61178 -2.52453 25141 ft 359 kts 153°
2026-05-07 19:26 53.59030 -2.50313 24894 ft 359 kts 151°
2026-05-07 19:26 53.56917 -2.48117 24606 ft 355 kts 150°
2026-05-07 19:26 53.54829 -2.45910 24167 ft 353 kts 150°
2026-05-07 19:27 53.52756 -2.43715 23720 ft 352 kts 150°
2026-05-07 19:27 53.50677 -2.41536 23210 ft 352 kts 151°
2026-05-07 19:27 53.48600 -2.39385 22754 ft 349 kts 151°
2026-05-07 19:27 53.46540 -2.37274 22310 ft 346 kts 151°
2026-05-07 19:28 53.44487 -2.35183 21865 ft 344 kts 151°
2026-05-07 19:28 53.42442 -2.33103 21448 ft 342 kts 151°
2026-05-07 19:28 53.40416 -2.31040 21012 ft 340 kts 151°
2026-05-07 19:28 53.38401 -2.28988 20577 ft 338 kts 151°
2026-05-07 19:29 53.36395 -2.26943 20168 ft 336 kts 151°
2026-05-07 19:29 53.34405 -2.24947 19823 ft 332 kts 152°
2026-05-07 19:29 53.32426 -2.23069 19459 ft 330 kts 153°
2026-05-07 19:29 53.30397 -2.21209 19128 ft 327 kts 154°
2026-05-07 19:30 53.28426 -2.19426 18785 ft 325 kts 154°
2026-05-07 19:30 53.26441 -2.17633 18469 ft 323 kts 154°
2026-05-07 19:30 53.24471 -2.15841 18115 ft 322 kts 154°
2026-05-07 19:30 53.22515 -2.14051 17766 ft 320 kts 154°
2026-05-07 19:31 53.20572 -2.12264 17453 ft 318 kts 154°
2026-05-07 19:31 53.19267 -2.11065 17235 ft 317 kts 154°
2026-05-07 19:31 53.17342 -2.09295 16910 ft 315 kts 153°
2026-05-07 19:31 53.15429 -2.07535 16586 ft 313 kts 153°
2026-05-07 19:32 53.13522 -2.05784 16274 ft 312 kts 154°
2026-05-07 19:32 53.11627 -2.04050 15953 ft 311 kts 154°
2026-05-07 19:32 53.09739 -2.02325 15643 ft 308 kts 154°
2026-05-07 19:32 53.07888 -2.00635 15337 ft 306 kts 154°
2026-05-07 19:33 53.06001 -1.98913 15026 ft 304 kts 154°
2026-05-07 19:33 53.04064 -1.97584 14712 ft 300 kts 167°
2026-05-07 19:33 53.02051 -1.97012 14414 ft 296 kts 177°
2026-05-07 19:33 53.00001 -1.96746 14113 ft 295 kts 177°
2026-05-07 19:34 52.97969 -1.96485 13809 ft 293 kts 177°
2026-05-07 19:34 52.95938 -1.96221 13488 ft 292 kts 177°
2026-05-07 19:34 52.93917 -1.95957 13188 ft 291 kts 177°
2026-05-07 19:34 52.91905 -1.95693 12890 ft 290 kts 177°
2026-05-07 19:35 52.89897 -1.95430 12591 ft 289 kts 177°
2026-05-07 19:35 52.87895 -1.95169 12145 ft 289 kts 178°
2026-05-07 19:35 52.85904 -1.94908 11527 ft 286 kts 178°
2026-05-07 19:35 52.83923 -1.94646 10870 ft 285 kts 178°
2026-05-07 19:36 52.81954 -1.94389 10222 ft 283 kts 178°
2026-05-07 19:36 52.79996 -1.94136 9551 ft 282 kts 178°
2026-05-07 19:36 52.78041 -1.93887 8824 ft 281 kts 178°
2026-05-07 19:36 52.76103 -1.93640 8116 ft 279 kts 178°
2026-05-07 19:37 52.74177 -1.93392 7415 ft 276 kts 177°
2026-05-07 19:37 52.72265 -1.93147 6735 ft 274 kts 177°
2026-05-07 19:37 52.70373 -1.92899 6042 ft 272 kts 176°
2026-05-07 19:37 52.68496 -1.92647 5340 ft 269 kts 176°
2026-05-07 19:38 52.66637 -1.92401 4643 ft 266 kts 176°
2026-05-07 19:38 52.64811 -1.92167 4129 ft 257 kts 176°
2026-05-07 19:38 52.63111 -1.91952 3992 ft 234 kts 175°
2026-05-07 19:38 52.61560 -1.91752 3861 ft 215 kts 176°
2026-05-07 19:39 52.60146 -1.91233 3638 ft 206 kts 153°
2026-05-07 19:39 52.58955 -1.89959 3370 ft 205 kts 147°
2026-05-07 19:39 52.57774 -1.88636 3086 ft 206 kts 147°
2026-05-07 19:39 52.56604 -1.87326 2811 ft 200 kts 147°
2026-05-07 19:40 52.55474 -1.86061 2565 ft 192 kts 147°
2026-05-07 19:40 52.54388 -1.84846 2300 ft 183 kts 147°
2026-05-07 19:40 52.53350 -1.83686 2046 ft 178 kts 147°
2026-05-07 19:40 52.52365 -1.82585 1818 ft 170 kts 147°
2026-05-07 19:41 52.51440 -1.81552 1584 ft 152 kts 147°
2026-05-07 19:41 52.50604 -1.80619 1385 ft 141 kts 147°
2026-05-07 19:41 52.49797 -1.79710 1177 ft 138 kts 146°
2026-05-07 19:41 52.49015 -1.78839 973 ft 137 kts 147°
2026-05-07 19:42 52.48221 -1.77962 789 ft 137 kts 147°
2026-05-07 19:42 52.47435 -1.77078 619 ft 136 kts 147°
2026-05-07 19:42 52.46651 -1.76206 434 ft 136 kts 147°
2026-05-07 19:42 52.45879 -1.75354 319 ft 124 kts 146°
2026-05-07 19:43 52.45301 -1.74709 324 ft 76 kts 146°
2026-05-07 19:43 52.45015 -1.74388 327 ft 25 kts 146°
2026-05-07 19:43 52.44938 -1.74272 327 ft 12 kts 105°
2026-05-07 19:43 52.44958 -1.74167 326 ft 8 kts 73°
2026-05-07 19:44 52.44972 -1.74077 325 ft 9 kts 75°
2026-05-07 19:44 52.44991 -1.73961 324 ft 11 kts 75°
2026-05-07 19:44 52.45023 -1.73861 323 ft 9 kts 54°
2026-05-07 19:44 52.45058 -1.73778 323 ft 8 kts 56°
2026-05-07 19:45 52.45095 -1.73719 323 ft 7 kts 39°
2026-05-07 19:45 52.45123 -1.73663 323 ft 6 kts 55°
2026-05-07 19:45 52.45145 -1.73612 323 ft 7 kts 56°
2026-05-07 19:45 52.45183 -1.73520 323 ft 11 kts 58°
2026-05-07 19:46 52.45154 -1.73454 323 ft 4 kts 140°
2026-05-07 19:46 52.45140 -1.73435 323 ft 1 kts 140°
2026-05-07 19:46 52.45139 -1.73434 322 ft 0 kts 141°
2026-05-07 19:53 52.45139 -1.73433 322 ft 0 kts 141°